researchandmarkets.com alexa rank chart, researchandmarkets.com alexa rank daily changes

researchandmarkets.com alexa rank chart, researchandmarkets.com alexa rank daily changes

researchandmarkets.com
Actual rank:
72 071

RANK HISTORY

Date Rank Diff
2017/12/11 72 071 +1 386
2017/12/10 70 685 +224
2017/12/09 70 461 +311
2017/12/08 70 150 +1 381
2017/12/07 68 769 +114
2017/12/06 68 655 -1 549
2017/12/05 70 204 +1 644
2017/12/04 68 560 +1 098
2017/12/03 67 462 +426
2017/12/02 67 036 +1 903
2017/12/01 65 133 -855
2017/11/30 65 988 -526
2017/11/29 66 514 -2 221
2017/11/28 68 735 +2 565
2017/11/27 66 170 +1 488
2017/11/26 64 682 -701
2017/11/25 65 383 -1 927
2017/11/24 67 310 -931
2017/11/23 68 241 -116
2017/11/22 68 357 +580
2017/11/21 67 777 +1 035
2017/11/20 66 742 +746
2017/11/19 65 996 -463
2017/11/18 66 459 +310
2017/11/17 66 149 -1 206
2017/11/16 67 355 -1 323
2017/11/15 68 678 +150
2017/11/14 68 528 +1 176
2017/11/13 67 352 +1 250
2017/11/12 66 102 +119
2017/11/11 65 983 +664
2017/11/10 65 319 -1 222
2017/11/09 66 541 -391
2017/11/08 66 932 -341
2017/11/07 67 273 -1 428
2017/11/06 68 701 +907
2017/11/05 67 794 +300
2017/11/04 67 494 -1 047
2017/11/03 68 541 -1 206
2017/11/02 69 747 -2 062
2017/11/01 71 809 +625
2017/10/31 71 184 +1 646
2017/10/30 69 538 +1 529
2017/10/29 68 009 +2 711
2017/10/28 65 298 -691
2017/10/27 65 989 +57
2017/10/26 65 932 -303
2017/10/25 66 235 -404
2017/10/24 66 639 +2 507
2017/10/23 64 132 +647
2017/10/22 63 485 -779
2017/10/21 64 264 +444
2017/10/20 63 820 +1 191
2017/10/19 62 629 +2 063
2017/10/18 60 566 +210
2017/10/17 60 356 +1 048
2017/10/16 59 308 +582
2017/10/14 58 726 +484
2017/10/13 58 242 +667
2017/10/12 57 575

WIDGET FOR YOUR SITE

DOMAINS WITH THE NEAREST RANK

Domain Rank
cxw.com 72 066
xvideps.net 72 067
adventar.org 72 068
bestcarton.com 72 069
amazingfacts.org 72 070
researchandmarkets.com 72 071
javanmobile.com 72 072
stmforum.com 72 073
mimersbrunn.se 72 074
torrentbutler.ru 72 075
mytemp.email 72 076

DOMAINS WITH THE NEAREST RANK BY TLD .com

Domain Rank
celebsnudeworld.com 72 060
xzsec.com 72 062
bridoz.com 72 064
cxw.com 72 066
bestcarton.com 72 069
researchandmarkets.com 72 071
javanmobile.com 72 072
stmforum.com 72 073
santanderfutbolpasion.com 72 077
magnolia-tv.com 72 079
soundpacks.com 72 080